FW1308 Weather Reports


time (UTC)temp
F
wind
direction
speed
knots
gust
knots
rain 1hr
in
rain 24hr
in
rain mn
in
humidity
%
barometer
mb
20260508040021 50 172 0.0 1.7 0.00 0.00 0.00 84 1016.5
20260508034519 51 39 0.0 1.7 0.00 0.00 0.00 83 1016.4
20260508033013 51 162 0.0 1.7 0.00 0.00 0.00 82 1016.4
20260508031512 52 3 0.0 0.9 0.00 0.00 0.00 80 1016.4
20260508030011 52 176 0.0 1.7 0.00 0.00 0.00 79 1016.5
20260508024510 52 148 1.7 7.0 0.00 0.00 0.00 79 1016.5
20260508023010 52 161 0.0 2.6 0.00 0.00 0.00 80 1016.6
20260508021508 51 158 0.0 1.7 0.00 0.00 0.00 81 1016.5
20260508020008 51 171 0.9 3.5 0.00 0.00 0.00 81 1016.5
20260508014511 51 146 0.0 4.3 0.00 0.00 0.00 81 1016.4
20260508013006 51 144 0.0 3.5 0.00 0.00 0.00 81 1016.4
20260508011504 51 158 0.0 3.5 0.00 0.00 0.00 80 1016.4
20260508010004 52 135 0.9 3.5 0.00 0.00 0.00 80 1016.3
20260508004504 52 173 0.9 4.3 0.00 0.00 0.00 80 1016.3
20260508003001 52 153 0.0 2.6 0.00 0.00 0.00 79 1016.4
20260508001626 52 99 0.0 2.6 0.00 0.00 0.00 79 1016.5
20260508000100 52 182 0.0 2.6 0.00 0.00 0.00 78 1016.6
20260507234556 52 192 0.0 6.1 0.00 0.00 0.00 78 1016.7
20260507233055 53 135 0.9 4.3 0.00 0.00 0.00 77 1016.6
20260507231654 53 138 0.9 4.3 0.00 0.00 0.00 77 1016.6
20260507230052 53 141 1.7 4.3 0.00 0.00 0.00 77 1016.6
20260507224556 53 172 0.0 3.5 0.00 0.00 0.00 76 1016.7
20260507223051 53 172 0.9 5.2 0.00 0.00 0.00 76 1016.8
20260507221549 54 139 0.9 4.3 0.00 0.00 0.00 75 1016.8
20260507220049 54 117 0.9 7.0 0.00 0.00 0.00 75 1016.7
20260507214552 54 133 0.9 6.1 0.00 0.00 0.00 74 1016.7
20260507213048 54 167 0.9 6.1 0.00 0.00 0.00 73 1016.6
20260507211547 54 161 0.9 5.2 0.00 0.00 0.00 73 1016.5
20260507210048 54 150 0.9 5.2 0.00 0.00 0.00 72 1016.6
20260507204552 54 156 0.0 3.5 0.00 0.00 0.00 72 1016.3
20260507203048 55 217 0.0 2.6 0.00 0.00 0.00 71 1016.2
20260507201553 55 42 0.0 4.3 0.00 0.00 0.00 70 1016.1
20260507200045 55 181 0.0 2.6 0.00 0.00 0.00 69 1015.9
20260507194544 56 120 0.9 3.5 0.00 0.00 0.00 67 1015.7
20260507193049 56 146 0.0 3.5 0.00 0.00 0.00 66 1015.6
20260507191550 57 23 0.9 2.6 0.00 0.00 0.00 65 1015.6
20260507190041 57 72 0.9 6.1 0.00 0.00 0.00 64 1015.6
20260507184537 57 315 0.9 5.2 0.00 0.00 0.00 63 1015.6
20260507183037 58 171 0.9 5.2 0.00 0.00 0.00 61 1015.4
20260507181535 58 131 0.9 7.0 0.00 0.00 0.00 59 1015.3
20260507180136 58 272 0.0 5.2 0.00 0.00 0.00 57 1015.2
20260507174541 59 304 0.9 5.2 0.00 0.00 0.00 56 1015.3
20260507173036 59 172 2.6 5.2 0.00 0.00 0.00 56 1015.1
20260507171536 59 1 1.7 5.2 0.00 0.00 0.00 56 1015.3
20260507170041 59 38 0.9 7.0 0.00 0.00 0.00 56 1015.2
20260507164532 60 233 0.0 5.2 0.00 0.00 0.00 53 1015.3
20260507163028 61 149 0.9 3.5 0.00 0.00 0.00 50 1015.2
20260507161527 60 295 1.7 6.1 0.00 0.00 0.00 52 1015.2
20260507160026 61 18 1.7 6.1 0.00 0.00 0.00 50 1015.3
20260507154524 60 19 0.0 6.1 0.00 0.00 0.00 51 1015.4
20260507153023 61 190 1.7 5.2 0.00 0.00 0.00 52 1015.4
20260507151521 59 70 0.9 4.3 0.00 0.00 0.00 54 1015.6
20260507150021 61 217 0.0 4.3 0.00 0.00 0.00 54 1015.7
20260507144517 60 96 0.0 5.2 0.00 0.00 0.00 56 1015.8
20260507143019 60 172 0.9 5.2 0.00 0.00 0.00 54 1015.8
20260507141515 60 187 0.0 5.2 0.00 0.00 0.00 52 1016.1
20260507140013 59 200 0.9 6.1 0.00 0.00 0.00 54 1016.0
20260507134512 60 146 0.9 3.5 0.00 0.00 0.00 54 1016.3
20260507133011 59 161 2.6 4.3 0.00 0.00 0.00 52 1016.2
20260507131514 60 109 1.7 6.1 0.00 0.00 0.00 52 1016.3
20260507130010 59 166 0.0 5.2 0.00 0.00 0.00 55 1016.4
20260507124510 61 3 0.0 5.2 0.00 0.00 0.00 51 1016.5
20260507123007 62 188 2.6 9.6 0.00 0.00 0.00 52 1016.5
20260507121507 61 172 0.9 5.2 0.00 0.00 0.00 55 1016.5
20260507120009 61 126 1.7 5.2 0.00 0.00 0.00 56 1016.7
20260507114501 59 6 1.7 7.0 0.00 0.00 0.00 59 1016.8
20260507113102 60 330 2.6 5.2 0.00 0.00 0.00 57 1016.8
20260507111607 59 186 1.7 6.1 0.00 0.00 0.00 61 1016.9
20260507110109 59 213 1.7 5.2 0.00 0.00 0.00 60 1016.9
20260507104554 58 133 0.9 4.3 0.00 0.00 0.00 63 1017.0
20260507103052 58 194 1.7 6.1 0.00 0.00 0.00 64 1017.0
20260507101557 57 331 0.9 5.2 0.00 0.00 0.00 66 1017.1
20260507100048 56 49 1.7 7.8 0.00 0.00 0.00 67 1017.1
20260507094547 56 167 2.6 6.1 0.00 0.00 0.00 66 1017.2
20260507093049 55 201 0.9 7.8 0.00 0.00 0.00 70 1017.1
20260507091538 54 233 0.0 5.2 0.00 0.00 0.00 70 1017.2
20260507090038 53 230 0.0 7.0 0.00 0.00 0.00 73 1017.3
20260507084535 52 171 1.7 4.3 0.00 0.00 0.00 74 1017.4
20260507083034 52 210 3.5 7.0 0.00 0.00 0.00 73 1017.3
20260507081542 53 191 0.0 4.3 0.00 0.00 0.00 74 1017.2
20260507080030 53 12 0.0 4.3 0.00 0.00 0.00 75 1017.3
20260507074545 52 165 0.0 0.0 0.00 0.00 0.00 76 1017.2
20260507073027 51 27 0.0 0.0 0.00 0.00 0.00 77 1017.2
20260507071507 50 33 0.0 0.0 0.00 0.00 0.00 78 1017.2
20260507070005 50 124 0.0 0.0 0.00 0.00 0.00 78 1017.2
20260507064600 49 221 0.0 0.0 0.00 0.00 0.00 81 1017.2
20260507063058 47 94 0.0 0.0 0.00 0.00 0.00 82 1017.1
20260507061554 46 91 0.0 0.0 0.00 0.00 0.00 86 1017.1
20260507060051 45 206 0.0 0.0 0.00 0.00 0.00 88 1017.0
20260507054618 43 259 0.0 0.0 0.00 0.00 0.00 91 1016.9
20260507053051 41 143 0.0 0.0 0.00 0.00 0.00 92 1016.9
20260507051546 40 141 0.0 0.0 0.00 0.00 0.00 92 1016.9
20260507050052 40 141 0.0 0.0 0.00 0.00 0.00 92 1016.9
20260507044549 40 141 0.0 0.0 0.00 0.00 0.00 92 1016.9
20260507043045 40 32 0.0 0.0 0.00 0.00 0.00 91 1016.9
20260507041545 41 32 0.0 0.0 0.00 0.00 0.00 91 1016.8